ソーホー彗星

323P/SOHO (2016)

English version
Home page
Updated on December 31, 2016

---------------------------------------------------------------------

・ プロフィール

・ 軌道要素

Epoch 2016 Nov. 28.0 TT = JDT 2457720.5
T 2016 Nov. 23.63342 TT                                 MPCW
q   0.0396488            (2000.0)            P               Q
n   0.23728416     Peri.  352.99872     +0.73665729     +0.67412791
a   2.5839864      Node   324.42304     -0.61589789     +0.63595979
e   0.9846560      Incl.    5.29956     -0.27929524     +0.37564172
P   4.15
From 76 observations 2004 Mar. 12-2016 Nov. 23.

・ 光度変化

        m1 = 20 + 5 logΔ + 10 log r

---------------------------------------------------------------------

軌道要素はM.P.E.C. 2016-Y36に掲載されたものです。
光度グラフはComet for Windowsで作成したものです。

---------------------------------------------------------------------

Copyright(C) Seiichi Yoshida (comet@aerith.net). All rights reserved.